,,PA_Meas_PMT16A,,PR_Meas_QMR101_102,,RH_Meas_QMH101,,SR_Meas_QMS101,,TA_Meas_QMH101,,GenWind,,GenWind,
time,status,PA,status,PR,status,RH,status,SR,status,TA,status,DirAvg,status,SpdAvg,
2013-06-19, 00:00:04,VALID,916.052,VALID,0,VALID,92.0985,VALID,0.107441,VALID,20.3074,VALID,145,VALID,0,
2013-06-19, 00:01:04,VALID,916.07,VALID,0,VALID,92.3119,VALID,0,VALID,20.2879,VALID,189,VALID,0,
2013-06-19, 00:02:04,VALID,916.079,VALID,0,VALID,92.4644,VALID,0.107441,VALID,20.3074,VALID,211,VALID,0,
2013-06-19, 00:03:04,VALID,916.003,VALID,0,VALID,92.251,VALID,0.107441,VALID,20.2879,VALID,215,VALID,0,
2013-06-19, 00:04:04,VALID,916.039,VALID,0,VALID,91.9765,VALID,0.107441,VALID,20.2098,VALID,191,VALID,0,
2013-06-19, 00:05:04,VALID,916.064,VALID,0,VALID,92.3958,VALID,0,VALID,20.1708,VALID,179,VALID,0,
2013-06-19, 00:06:04,VALID,916.115,VALID,0,VALID,92.6931,VALID,0.107441,VALID,20.1708,VALID,192,VALID,0,
2013-06-19, 00:07:04,VALID,916.142,VALID,0,VALID,92.838,VALID,0.107441,VALID,20.1513,VALID,199,VALID,0,
2013-06-19, 00:08:04,VALID,916.129,VALID,0,VALID,92.9599,VALID,0.107441,VALID,20.1318,VALID,170,VALID,0,
2013-06-19, 00:09:04,VALID,916.101,VALID,0,VALID,93.0895,VALID,0,VALID,20.1123,VALID,209,VALID,0,
2013-06-19, 00:10:04,VALID,916.114,VALID,0,VALID,93.1276,VALID,0,VALID,20.0928,VALID,229,VALID,0,
2013-06-19, 00:11:04,VALID,916.128,VALID,0,VALID,93.3945,VALID,0,VALID,20.1318,VALID,241,VALID,0,
2013-06-19, 00:12:04,VALID,916.121,VALID,0,VALID,93.3564,VALID,0,VALID,20.1708,VALID,249,VALID,0,
2013-06-19, 00:13:04,VALID,916.143,VALID,0,VALID,93.2268,VALID,0,VALID,20.2098,VALID,231,VALID,0,
2013-06-19, 00:14:04,VALID,916.082,VALID,0,VALID,92.9904,VALID,0,VALID,20.2293,VALID,224,VALID,0,
2013-06-19, 00:15:04,VALID,916.165,VALID,0,VALID,92.6855,VALID,0,VALID,20.2114,VALID,224,VALID,0,
2013-06-19, 00:16:04,VALID,916.196,VALID,0,VALID,92.5559,VALID,0,VALID,20.1724,VALID,203,VALID,0,
2013-06-19, 00:17:04,VALID,916.157,VALID,0,VALID,92.2662,VALID,0,VALID,20.1139,VALID,180,VALID,0,
2013-06-19, 00:18:04,VALID,916.149,VALID,0,VALID,92.4034,VALID,0,VALID,20.0749,VALID,191,VALID,0,
2013-06-19, 00:19:04,VALID,916.127,VALID,0,VALID,92.655,VALID,0,VALID,20.0569,VALID,197,VALID,0,
2013-06-19, 00:20:04,VALID,916.107,VALID,0,VALID,92.777,VALID,0,VALID,19.9968,VALID,193,VALID,0,
2013-06-19, 00:21:04,VALID,916.112,VALID,0,VALID,92.8989,VALID,0,VALID,19.9578,VALID,193,VALID,0,
2013-06-19, 00:22:04,VALID,916.114,VALID,0,VALID,93.0057,VALID,0,VALID,19.9188,VALID,193,VALID,0,
2013-06-19, 00:23:04,VALID,916.088,VALID,0,VALID,93.3182,VALID,0,VALID,19.8993,VALID,227,VALID,0,
2013-06-19, 00:24:04,VALID,916.099,VALID,0,VALID,93.3716,VALID,0,VALID,19.9188,VALID,222,VALID,0,
2013-06-19, 00:25:04,VALID,916.064,VALID,0,VALID,93.1429,VALID,0,VALID,19.8798,VALID,222,VALID,0,
2013-06-19, 00:26:04,VALID,916.095,VALID,0,VALID,93.2268,VALID,0,VALID,19.8378,VALID,219,VALID,0,
2013-06-19, 00:27:04,VALID,916.068,VALID,0,VALID,93.4859,VALID,0,VALID,19.9008,VALID,213,VALID,0,
2013-06-19, 00:28:04,VALID,916.036,VALID,0,VALID,93.5851,VALID,0,VALID,19.8993,VALID,249,VALID,0,
2013-06-19, 00:29:04,VALID,916.02,VALID,0,VALID,93.2801,VALID,0,VALID,19.8603,VALID,32,VALID,0,
2013-06-19, 00:30:04,VALID,916.019,VALID,0,VALID,93.1505,VALID,0.107441,VALID,19.8198,VALID,34,VALID,0,
2013-06-19, 00:31:04,VALID,915.992,VALID,0,VALID,93.3487,VALID,0.107441,VALID,19.8003,VALID,35,VALID,0,
2013-06-19, 00:32:04,VALID,916.017,VALID,0,VALID,93.5393,VALID,0,VALID,19.8003,VALID,196,VALID,0,
2013-06-19, 00:33:04,VALID,916.01,VALID,0,VALID,93.8747,VALID,0,VALID,19.8198,VALID,238,VALID,0,
2013-06-19, 00:34:04,VALID,915.994,VALID,0,VALID,93.8595,VALID,0.107441,VALID,19.8363,VALID,246,VALID,0,
2013-06-19, 00:35:04,VALID,916.007,VALID,0,VALID,93.425,VALID,0,VALID,19.8603,VALID,290,VALID,0,
2013-06-19, 00:36:04,VALID,916.002,VALID,0,VALID,93.4707,VALID,0,VALID,19.8198,VALID,196,VALID,0,
2013-06-19, 00:37:04,VALID,916.013,VALID,0,VALID,93.6384,VALID,0,VALID,19.8393,VALID,211,VALID,0,
2013-06-19, 00:38:04,VALID,916.002,VALID,0,VALID,93.8061,VALID,0.107441,VALID,19.8588,VALID,308,VALID,0,
2013-06-19, 00:39:04,VALID,915.99,VALID,0,VALID,93.6613,VALID,0,VALID,19.8588,VALID,152,VALID,0,
2013-06-19, 00:40:04,VALID,915.988,VALID,0,VALID,93.7604,VALID,0,VALID,19.9188,VALID,214,VALID,0,
2013-06-19, 00:41:04,VALID,916.003,VALID,0,VALID,93.6842,VALID,0,VALID,19.9188,VALID,216,VALID,0,
2013-06-19, 00:42:04,VALID,916.043,VALID,0,VALID,93.7223,VALID,0,VALID,19.8978,VALID,197,VALID,0,
2013-06-19, 00:43:04,VALID,916.04,VALID,0,VALID,93.9586,VALID,0.107441,VALID,19.9158,VALID,227,VALID,0,
2013-06-19, 00:44:04,VALID,916.062,VALID,0,VALID,93.9357,VALID,0,VALID,19.9578,VALID,217,VALID,0,
2013-06-19, 00:45:04,VALID,916.057,VALID,0,VALID,93.829,VALID,0,VALID,19.9173,VALID,203,VALID,0,
2013-06-19, 00:46:04,VALID,916.097,VALID,0,VALID,93.6689,VALID,0,VALID,19.9173,VALID,243,VALID,0,
2013-06-19, 00:47:04,VALID,916.084,VALID,0,VALID,93.5317,VALID,0,VALID,19.9188,VALID,196,VALID,0,
2013-06-19, 00:48:04,VALID,916.1,VALID,0,VALID,93.5546,VALID,0,VALID,19.8993,VALID,223,VALID,0,
2013-06-19, 00:49:04,VALID,916.041,VALID,0,VALID,93.5622,VALID,0,VALID,19.9188,VALID,235,VALID,0,
2013-06-19, 00:50:04,VALID,916.049,VALID,0,VALID,93.4478,VALID,0,VALID,19.8978,VALID,191,VALID,0,
2013-06-19, 00:51:04,VALID,916.09,VALID,0,VALID,93.3792,VALID,0,VALID,19.8588,VALID,188,VALID,0,
2013-06-19, 00:52:04,VALID,916.001,VALID,0,VALID,93.3564,VALID,0,VALID,19.8798,VALID,209,VALID,0,
2013-06-19, 00:53:04,VALID,915.991,VALID,0,VALID,93.1886,VALID,0.107441,VALID,19.8213,VALID,281,VALID,0,
2013-06-19, 00:54:04,VALID,915.961,VALID,0,VALID,93.0667,VALID,0.107441,VALID,19.7823,VALID,317,VALID,0,
2013-06-19, 00:55:04,VALID,915.944,VALID,0,VALID,93.1886,VALID,0,VALID,19.7223,VALID,201,VALID,0,
2013-06-19, 00:56:04,VALID,915.891,VALID,0,VALID,93.2801,VALID,0,VALID,19.7043,VALID,175,VALID,0,
2013-06-19, 00:57:04,VALID,915.867,VALID,0,VALID,93.2877,VALID,0,VALID,19.6833,VALID,316,VALID,0,
2013-06-19, 00:58:04,VALID,915.888,VALID,0,VALID,93.2877,VALID,0,VALID,19.6638,VALID,67,VALID,0,
2013-06-19, 00:59:04,VALID,915.855,VALID,0,VALID,93.3411,VALID,0,VALID,19.6443,VALID,193,VALID,0,
2013-06-19, 01:00:04,VALID,915.817,VALID,0,VALID,93.364,VALID,0,VALID,19.6458,VALID,179,VALID,0,
2013-06-19, 01:01:04,VALID,915.892,VALID,0,VALID,93.4783,VALID,0,VALID,19.6248,VALID,196,VALID,0,
2013-06-19, 01:02:04,VALID,915.803,VALID,0,VALID,93.3335,VALID,0,VALID,19.5858,VALID,155,VALID,0,
2013-06-19, 01:03:04,VALID,915.791,VALID,0,VALID,93.4936,VALID,0,VALID,19.5678,VALID,81,VALID,0,
2013-06-19, 01:04:04,VALID,915.735,VALID,0,VALID,93.5012,VALID,0,VALID,19.5873,VALID,193,VALID,0,
2013-06-19, 01:05:04,VALID,915.695,VALID,0,VALID,93.5317,VALID,0,VALID,19.6263,VALID,189,VALID,0,
2013-06-19, 01:06:04,VALID,915.739,VALID,0,VALID,93.4631,VALID,0.107441,VALID,19.6248,VALID,193,VALID,0,
2013-06-19, 01:07:04,VALID,915.752,VALID,0,VALID,93.3868,VALID,0,VALID,19.6653,VALID,201,VALID,0,
2013-06-19, 01:08:04,VALID,915.747,VALID,0,VALID,93.2725,VALID,0,VALID,19.6443,VALID,205,VALID,0,
2013-06-19, 01:09:04,VALID,915.746,VALID,0,VALID,93.1048,VALID,0.107441,VALID,19.6458,VALID,205,VALID,0,
2013-06-19, 01:10:04,VALID,915.724,VALID,0,VALID,93.0285,VALID,0,VALID,19.6248,VALID,181,VALID,0,
2013-06-19, 01:11:04,VALID,915.666,VALID,0,VALID,92.9142,VALID,0,VALID,19.6053,VALID,232,VALID,0,
2013-06-19, 01:12:04,VALID,915.671,VALID,0,VALID,92.8303,VALID,0,VALID,19.6068,VALID,231,VALID,0,
2013-06-19, 01:13:04,VALID,915.629,VALID,0,VALID,92.8685,VALID,0,VALID,19.6068,VALID,212,VALID,0,
2013-06-19, 01:14:04,VALID,915.571,VALID,0,VALID,92.8989,VALID,0,VALID,19.5663,VALID,94,VALID,0,
2013-06-19, 01:15:04,VALID,915.586,VALID,0,VALID,92.8608,VALID,0,VALID,19.5873,VALID,220,VALID,0,
2013-06-19, 01:16:04,VALID,915.556,VALID,0,VALID,92.6245,VALID,0,VALID,19.5468,VALID,175,VALID,0,
2013-06-19, 01:17:04,VALID,915.539,VALID,0,VALID,92.6093,VALID,0,VALID,19.5483,VALID,149,VALID,0,
2013-06-19, 01:18:04,VALID,915.608,VALID,0,VALID,92.7541,VALID,0,VALID,19.5078,VALID,124,VALID,0,
2013-06-19, 01:19:04,VALID,915.591,VALID,0,VALID,92.8151,VALID,0,VALID,19.4883,VALID,179,VALID,0,
2013-06-19, 01:20:04,VALID,915.54,VALID,0,VALID,92.838,VALID,0,VALID,19.4673,VALID,218,VALID,0,
2013-06-19, 01:21:04,VALID,915.549,VALID,0,VALID,92.533,VALID,0,VALID,19.5317,VALID,178,VALID,0,
2013-06-19, 01:22:04,VALID,915.568,VALID,0,VALID,92.2128,VALID,0,VALID,19.4688,VALID,165,VALID,0,
2013-06-19, 01:23:04,VALID,915.561,VALID,0,VALID,91.9155,VALID,0,VALID,19.4523,VALID,139,VALID,0,
2013-06-19, 01:24:04,VALID,915.554,VALID,0,VALID,91.9536,VALID,0,VALID,19.4132,VALID,161,VALID,0,
2013-06-19, 01:25:04,VALID,915.578,VALID,0,VALID,92.0451,VALID,0,VALID,19.3757,VALID,148,VALID,0,
2013-06-19, 01:26:04,VALID,915.594,VALID,0,VALID,92.0985,VALID,0,VALID,19.2918,VALID,158,VALID,0,
2013-06-19, 01:27:04,VALID,915.515,VALID,0,VALID,92.2281,VALID,0,VALID,19.3533,VALID,114,VALID,0,
2013-06-19, 01:28:04,VALID,915.542,VALID,0,VALID,91.9994,VALID,0,VALID,19.4132,VALID,236,VALID,0,
2013-06-19, 01:29:04,VALID,915.576,VALID,0,VALID,92.007,VALID,0,VALID,19.4132,VALID,207,VALID,0,
2013-06-19, 01:30:04,VALID,915.501,VALID,0,VALID,92.1214,VALID,0.107441,VALID,19.4313,VALID,158,VALID,0,
2013-06-19, 01:31:04,VALID,915.53,VALID,0,VALID,91.7631,VALID,0,VALID,19.3742,VALID,43,VALID,0,
2013-06-19, 01:32:04,VALID,915.587,VALID,0,VALID,92.007,VALID,0,VALID,19.2948,VALID,158,VALID,0,
2013-06-19, 01:33:04,VALID,915.598,VALID,0,VALID,92.3958,VALID,0,VALID,19.2543,VALID,170,VALID,0,
2013-06-19, 01:34:04,VALID,915.609,VALID,0,VALID,92.5178,VALID,0,VALID,19.2348,VALID,105,VALID,0,
2013-06-19, 01:35:04,VALID,915.58,VALID,0,VALID,92.4644,VALID,0,VALID,19.2977,VALID,104,VALID,0,
2013-06-19, 01:36:04,VALID,915.617,VALID,0,VALID,92.4797,VALID,0,VALID,19.2753,VALID,115,VALID,0,
2013-06-19, 01:37:04,VALID,915.535,VALID,0,VALID,92.3653,VALID,0,VALID,19.3728,VALID,169,VALID,0,
2013-06-19, 01:38:04,VALID,915.579,VALID,0,VALID,91.9689,VALID,0,VALID,19.4508,VALID,252,VALID,0,
2013-06-19, 01:39:04,VALID,915.587,VALID,0,VALID,91.6716,VALID,0,VALID,19.4703,VALID,247,VALID,0,
2013-06-19, 01:40:04,VALID,915.566,VALID,0,VALID,91.6411,VALID,0,VALID,19.4883,VALID,247,VALID,0,
2013-06-19, 01:41:04,VALID,915.549,VALID,0,VALID,91.6945,VALID,0,VALID,19.4898,VALID,247,VALID,0,
2013-06-19, 01:42:04,VALID,915.602,VALID,0,VALID,91.7097,VALID,0,VALID,19.4703,VALID,193,VALID,0,
2013-06-19, 01:43:04,VALID,915.486,VALID,0,VALID,91.9079,VALID,0,VALID,19.4898,VALID,193,VALID,0,
2013-06-19, 01:44:04,VALID,915.475,VALID,0,VALID,91.8393,VALID,0,VALID,19.4103,VALID,77,VALID,0,
2013-06-19, 01:45:04,VALID,915.496,VALID,0,VALID,92.0146,VALID,0,VALID,19.3908,VALID,116,VALID,0,
2013-06-19, 01:46:04,VALID,915.488,VALID,0,VALID,92.2433,VALID,0,VALID,19.4118,VALID,141,VALID,0,
2013-06-19, 01:47:04,VALID,915.494,VALID,0,VALID,92.3958,VALID,0,VALID,19.4493,VALID,216,VALID,0,
2013-06-19, 01:48:04,VALID,915.502,VALID,0,VALID,92.4492,VALID,0,VALID,19.4703,VALID,218,VALID,0,
2013-06-19, 01:49:04,VALID,915.484,VALID,0,VALID,92.2586,VALID,0,VALID,19.4508,VALID,170,VALID,0,
2013-06-19, 01:50:04,VALID,915.448,VALID,0,VALID,92.3196,VALID,0,VALID,19.4313,VALID,148,VALID,0,
2013-06-19, 01:51:04,VALID,915.462,VALID,0,VALID,92.3653,VALID,0,VALID,19.3908,VALID,139,VALID,0,
2013-06-19, 01:52:04,VALID,915.49,VALID,0,VALID,92.2433,VALID,0,VALID,19.4118,VALID,139,VALID,0,
2013-06-19, 01:53:04,VALID,915.468,VALID,0,VALID,92.1366,VALID,0,VALID,19.3728,VALID,139,VALID,0,
2013-06-19, 01:54:04,VALID,915.41,VALID,0,VALID,92.1214,VALID,0,VALID,19.3143,VALID,139,VALID,0,
2013-06-19, 01:55:04,VALID,915.39,VALID,0,VALID,92.2967,VALID,0,VALID,19.2753,VALID,139,VALID,0,
2013-06-19, 01:56:04,VALID,915.404,VALID,0,VALID,92.6093,VALID,0,VALID,19.2153,VALID,150,VALID,0,
2013-06-19, 01:57:04,VALID,915.424,VALID,0,VALID,93.0133,VALID,0,VALID,19.2168,VALID,195,VALID,0,
2013-06-19, 01:58:04,VALID,915.409,VALID,0,VALID,93.2725,VALID,0,VALID,19.2168,VALID,155,VALID,0,
2013-06-19, 01:59:04,VALID,915.374,VALID,0,VALID,93.4402,VALID,0,VALID,19.2558,VALID,193,VALID,0,
2013-06-19, 02:00:04,VALID,915.332,VALID,0,VALID,93.4936,VALID,0,VALID,19.2348,VALID,100,VALID,0,
2013-06-19, 02:01:04,VALID,915.309,VALID,0,VALID,93.5622,VALID,0,VALID,19.2738,VALID,159,VALID,0,
2013-06-19, 02:02:04,VALID,915.348,VALID,0,VALID,93.3487,VALID,0,VALID,19.3352,VALID,98,VALID,0,
2013-06-19, 02:03:04,VALID,915.349,VALID,0,VALID,93.2725,VALID,0,VALID,19.3143,VALID,138,VALID,0,
2013-06-19, 02:04:04,VALID,915.284,VALID,0,VALID,93.1886,VALID,0,VALID,19.3338,VALID,135,VALID,0,
2013-06-19, 02:05:04,VALID,915.311,VALID,0,VALID,93.1048,VALID,0,VALID,19.2933,VALID,167,VALID,0,
2013-06-19, 02:06:04,VALID,915.287,VALID,0,VALID,93.1734,VALID,0,VALID,19.3728,VALID,350,VALID,0,
2013-06-19, 02:07:04,VALID,915.282,VALID,0,VALID,92.9752,VALID,0,VALID,19.3728,VALID,73,VALID,0,
2013-06-19, 02:08:04,VALID,915.278,VALID,0,VALID,92.9904,VALID,0,VALID,19.3923,VALID,97,VALID,0,
2013-06-19, 02:09:04,VALID,915.221,VALID,0,VALID,93.0133,VALID,0,VALID,19.4118,VALID,311,VALID,0,
2013-06-19, 02:10:04,VALID,915.229,VALID,0,VALID,92.7617,VALID,0,VALID,19.4118,VALID,113,VALID,0,
2013-06-19, 02:11:04,VALID,915.248,VALID,0,VALID,92.8685,VALID,0,VALID,19.4118,VALID,165,VALID,0,
2013-06-19, 02:12:04,VALID,915.267,VALID,0,VALID,92.8608,VALID,0,VALID,19.4313,VALID,219,VALID,0,
2013-06-19, 02:13:04,VALID,915.271,VALID,0,VALID,92.7998,VALID,0,VALID,19.4118,VALID,117,VALID,0,
2013-06-19, 02:14:04,VALID,915.184,VALID,0,VALID,92.9218,VALID,0,VALID,19.4508,VALID,237,VALID,0,
2013-06-19, 02:15:04,VALID,915.159,VALID,0,VALID,92.6169,VALID,0,VALID,19.4508,VALID,45,VALID,0,
2013-06-19, 02:16:04,VALID,915.105,VALID,0,VALID,92.4949,VALID,0,VALID,19.4703,VALID,358,VALID,0,
2013-06-19, 02:17:04,VALID,915.127,VALID,0,VALID,92.4568,VALID,0,VALID,19.4703,VALID,97,VALID,0,
2013-06-19, 02:18:04,VALID,915.147,VALID,0,VALID,92.4263,VALID,0,VALID,19.4898,VALID,194,VALID,0,
2013-06-19, 02:19:04,VALID,915.094,VALID,0,VALID,92.411,VALID,0,VALID,19.4898,VALID,195,VALID,0,
2013-06-19, 02:20:04,VALID,915.025,VALID,0,VALID,92.4187,VALID,0,VALID,19.5483,VALID,222,VALID,0,
2013-06-19, 02:21:04,VALID,915.033,VALID,0,VALID,92.2205,VALID,0,VALID,19.5273,VALID,201,VALID,0,
2013-06-19, 02:22:04,VALID,915.027,VALID,0,VALID,91.9765,VALID,0,VALID,19.5273,VALID,55,VALID,0,
2013-06-19, 02:23:04,VALID,915.039,VALID,0,VALID,92.1671,VALID,0,VALID,19.5273,VALID,205,VALID,0,
2013-06-19, 02:24:04,VALID,915.001,VALID,0,VALID,92.2433,VALID,0,VALID,19.5483,VALID,202,VALID,0,
2013-06-19, 02:25:04,VALID,915.008,VALID,0,VALID,91.9994,VALID,0,VALID,19.5288,VALID,100,VALID,0,
2013-06-19, 02:26:04,VALID,914.991,VALID,0,VALID,92.129,VALID,0,VALID,19.4703,VALID,89,VALID,0,
2013-06-19, 02:27:04,VALID,914.947,VALID,0,VALID,92.0985,VALID,0,VALID,19.4703,VALID,204,VALID,0,
2013-06-19, 02:28:04,VALID,914.941,VALID,0,VALID,91.8088,VALID,0.107441,VALID,19.5093,VALID,95,VALID,0,
2013-06-19, 02:29:04,VALID,914.934,VALID,0,VALID,91.7554,VALID,0,VALID,19.4898,VALID,160,VALID,0,
2013-06-19, 02:30:04,VALID,914.916,VALID,0,VALID,91.9841,VALID,0,VALID,19.4913,VALID,220,VALID,0,
2013-06-19, 02:31:04,VALID,914.915,VALID,0,VALID,92.007,VALID,0,VALID,19.4523,VALID,206,VALID,0,
2013-06-19, 02:32:04,VALID,914.905,VALID,0,VALID,91.9003,VALID,0,VALID,19.4313,VALID,105,VALID,0,
2013-06-19, 02:33:04,VALID,914.897,VALID,0,VALID,91.9384,VALID,0,VALID,19.3713,VALID,117,VALID,0,
2013-06-19, 02:34:04,VALID,914.934,VALID,0,VALID,91.9689,VALID,0,VALID,19.4132,VALID,166,VALID,0,
2013-06-19, 02:35:04,VALID,914.875,VALID,0,VALID,91.9536,VALID,0,VALID,19.4327,VALID,115,VALID,0,
2013-06-19, 02:36:04,VALID,914.937,VALID,0,VALID,91.8393,VALID,0,VALID,19.3742,VALID,112,VALID,0,
2013-06-19, 02:37:04,VALID,914.911,VALID,0,VALID,91.9003,VALID,0,VALID,19.3547,VALID,190,VALID,0,
2013-06-19, 02:38:04,VALID,914.836,VALID,0,VALID,92.1671,VALID,0,VALID,19.3547,VALID,190,VALID,0,
2013-06-19, 02:39:04,VALID,914.858,VALID,0,VALID,92.2967,VALID,0,VALID,19.3547,VALID,125,VALID,0,
2013-06-19, 02:40:04,VALID,914.803,VALID,0,VALID,92.3882,VALID,0,VALID,19.3338,VALID,88,VALID,0,
2013-06-19, 02:41:04,VALID,914.847,VALID,0,VALID,92.5254,VALID,0,VALID,19.3742,VALID,201,VALID,0,
2013-06-19, 02:42:04,VALID,914.815,VALID,0,VALID,92.5406,VALID,0,VALID,19.3937,VALID,182,VALID,0,
2013-06-19, 02:43:04,VALID,914.847,VALID,0,VALID,92.4187,VALID,0,VALID,19.3923,VALID,184,VALID,0,
2013-06-19, 02:44:04,VALID,914.836,VALID,0,VALID,92.533,VALID,0,VALID,19.4132,VALID,192,VALID,0,
2013-06-19, 02:45:04,VALID,914.819,VALID,0,VALID,92.6626,VALID,0,VALID,19.4718,VALID,230,VALID,0,
2013-06-19, 02:46:04,VALID,914.743,VALID,0,VALID,92.5635,VALID,0,VALID,19.4508,VALID,220,VALID,0,
2013-06-19, 02:47:04,VALID,914.78,VALID,0,VALID,92.472,VALID,0,VALID,19.4703,VALID,253,VALID,0,
2013-06-19, 02:48:04,VALID,914.737,VALID,0,VALID,92.4263,VALID,0,VALID,19.4883,VALID,254,VALID,0,
2013-06-19, 02:49:04,VALID,914.747,VALID,0,VALID,92.2052,VALID,0,VALID,19.5093,VALID,69,VALID,0,
2013-06-19, 02:50:04,VALID,914.766,VALID,0,VALID,92.2586,VALID,0,VALID,19.5288,VALID,357,VALID,0,
2013-06-19, 02:51:04,VALID,914.738,VALID,0,VALID,91.9384,VALID,0,VALID,19.6053,VALID,219,VALID,0,
2013-06-19, 02:52:04,VALID,914.736,VALID,0,VALID,91.7173,VALID,0,VALID,19.6053,VALID,217,VALID,0,
2013-06-19, 02:53:04,VALID,914.691,VALID,0,VALID,91.1837,VALID,0,VALID,19.5678,VALID,342,VALID,0,
2013-06-19, 02:54:04,VALID,914.722,VALID,0,VALID,91.2294,VALID,0,VALID,19.4898,VALID,264,VALID,0,
2013-06-19, 02:55:04,VALID,914.699,VALID,0,VALID,91.9689,VALID,0,VALID,19.4508,VALID,181,VALID,0,
2013-06-19, 02:56:04,VALID,914.695,VALID,0,VALID,92.19,VALID,0,VALID,19.4313,VALID,155,VALID,0,
2013-06-19, 02:57:04,VALID,914.679,VALID,0,VALID,92.6016,VALID,0,VALID,19.4298,VALID,132,VALID,0,
2013-06-19, 02:58:04,VALID,914.726,VALID,0,VALID,92.8151,VALID,0,VALID,19.4298,VALID,213,VALID,0,
2013-06-19, 02:59:04,VALID,914.682,VALID,0,VALID,93.0667,VALID,0,VALID,19.5093,VALID,205,VALID,0,
2013-06-19, 03:00:04,VALID,914.63,VALID,0,VALID,92.6093,VALID,0,VALID,19.5108,VALID,6,VALID,0,
2013-06-19, 03:01:04,VALID,914.64,VALID,0,VALID,92.3119,VALID,0,VALID,19.4913,VALID,319,VALID,0,
2013-06-19, 03:02:04,VALID,914.611,VALID,0,VALID,92.4339,VALID,0,VALID,19.4523,VALID,217,VALID,0,
2013-06-19, 03:03:04,VALID,914.618,VALID,0,VALID,92.6931,VALID,0,VALID,19.4718,VALID,217,VALID,0,
2013-06-19, 03:04:04,VALID,914.55,VALID,0,VALID,92.777,VALID,0,VALID,19.4523,VALID,170,VALID,0,
2013-06-19, 03:05:04,VALID,914.535,VALID,0,VALID,92.9218,VALID,0,VALID,19.4523,VALID,172,VALID,0,
2013-06-19, 03:06:04,VALID,914.562,VALID,0,VALID,93.059,VALID,0,VALID,19.4327,VALID,166,VALID,0,
2013-06-19, 03:07:04,VALID,914.545,VALID,0,VALID,93.1276,VALID,0,VALID,19.4327,VALID,124,VALID,0,
2013-06-19, 03:08:04,VALID,914.559,VALID,0,VALID,93.364,VALID,0,VALID,19.4508,VALID,237,VALID,0,
2013-06-19, 03:09:04,VALID,914.533,VALID,0,VALID,93.1124,VALID,0,VALID,19.4523,VALID,199,VALID,0,
2013-06-19, 03:10:04,VALID,914.551,VALID,0,VALID,93.0285,VALID,0,VALID,19.4132,VALID,145,VALID,0,
2013-06-19, 03:11:04,VALID,914.517,VALID,0,VALID,93.2191,VALID,0,VALID,19.4132,VALID,145,VALID,0,
2013-06-19, 03:12:04,VALID,914.46,VALID,0,VALID,93.3945,VALID,0,VALID,19.4132,VALID,39,VALID,0,
2013-06-19, 03:13:04,VALID,914.48,VALID,0,VALID,93.5012,VALID,0,VALID,19.3937,VALID,203,VALID,0,
2013-06-19, 03:14:04,VALID,914.501,VALID,0,VALID,93.6689,VALID,0,VALID,19.4118,VALID,213,VALID,0,
2013-06-19, 03:15:04,VALID,914.5,VALID,0,VALID,93.6842,VALID,0,VALID,19.4313,VALID,225,VALID,0,
2013-06-19, 03:16:04,VALID,914.548,VALID,0,VALID,93.6918,VALID,0,VALID,19.4898,VALID,233,VALID,0,
2013-06-19, 03:17:04,VALID,914.53,VALID,0,VALID,93.5317,VALID,0,VALID,19.5093,VALID,194,VALID,0,
2013-06-19, 03:18:04,VALID,914.555,VALID,0,VALID,93.3716,VALID,0,VALID,19.5093,VALID,57,VALID,0,
2013-06-19, 03:19:04,VALID,914.52,VALID,0,VALID,93.303,VALID,0,VALID,19.5093,VALID,156,VALID,0,
2013-06-19, 03:20:04,VALID,914.539,VALID,0,VALID,93.2801,VALID,0,VALID,19.4493,VALID,151,VALID,0,
2013-06-19, 03:21:04,VALID,914.525,VALID,0,VALID,93.4021,VALID,0,VALID,19.5093,VALID,202,VALID,0,
2013-06-19, 03:22:04,VALID,914.51,VALID,0,VALID,93.3945,VALID,0,VALID,19.5078,VALID,129,VALID,0,
2013-06-19, 03:23:04,VALID,914.543,VALID,0,VALID,93.4707,VALID,0,VALID,19.5093,VALID,193,VALID,0,
2013-06-19, 03:24:04,VALID,914.556,VALID,0,VALID,93.5088,VALID,0,VALID,19.4898,VALID,240,VALID,0,
2013-06-19, 03:25:04,VALID,914.521,VALID,0,VALID,93.5317,VALID,0,VALID,19.4493,VALID,75,VALID,0,
2013-06-19, 03:26:04,VALID,914.527,VALID,0,VALID,93.6155,VALID,0,VALID,19.4313,VALID,162,VALID,0,
2013-06-19, 03:27:04,VALID,914.546,VALID,0,VALID,93.8214,VALID,0,VALID,19.4688,VALID,141,VALID,0,
2013-06-19, 03:28:04,VALID,914.544,VALID,0,VALID,93.9586,VALID,0,VALID,19.4703,VALID,149,VALID,0,
2013-06-19, 03:29:04,VALID,914.594,VALID,0,VALID,94.0577,VALID,0,VALID,19.4718,VALID,63,VALID,0,
2013-06-19, 03:30:04,VALID,914.559,VALID,0,VALID,94.1873,VALID,0,VALID,19.5093,VALID,149,VALID,0,
2013-06-19, 03:31:04,VALID,914.53,VALID,0,VALID,94.1187,VALID,0,VALID,19.5093,VALID,71,VALID,0,
2013-06-19, 03:32:04,VALID,914.559,VALID,0,VALID,94.0653,VALID,0,VALID,19.4688,VALID,186,VALID,0,
2013-06-19, 03:33:04,VALID,914.568,VALID,0,VALID,94.1873,VALID,0,VALID,19.4703,VALID,119,VALID,0,
2013-06-19, 03:34:04,VALID,914.583,VALID,0,VALID,94.3398,VALID,0,VALID,19.5093,VALID,181,VALID,0,
2013-06-19, 03:35:04,VALID,914.515,VALID,0,VALID,94.3931,VALID,0,VALID,19.4898,VALID,354,VALID,0,
2013-06-19, 03:36:04,VALID,914.579,VALID,0,VALID,94.4084,VALID,0,VALID,19.5288,VALID,209,VALID,0,
2013-06-19, 03:37:04,VALID,914.586,VALID,0,VALID,94.2788,VALID,0,VALID,19.5678,VALID,263,VALID,0,
2013-06-19, 03:38:04,VALID,914.506,VALID,0,VALID,94.3245,VALID,0,VALID,19.5873,VALID,199,VALID,0,
2013-06-19, 03:39:04,VALID,914.573,VALID,0,VALID,94.1797,VALID,0,VALID,19.6068,VALID,360,VALID,0,
2013-06-19, 03:40:04,VALID,914.527,VALID,0,VALID,93.9129,VALID,0,VALID,19.5873,VALID,295,VALID,0,
2013-06-19, 03:41:04,VALID,914.528,VALID,0,VALID,93.9891,VALID,0,VALID,19.6263,VALID,134,VALID,0,
2013-06-19, 03:42:04,VALID,914.496,VALID,0,VALID,93.8824,VALID,0,VALID,19.6083,VALID,95,VALID,0,
2013-06-19, 03:43:04,VALID,914.54,VALID,0,VALID,93.9281,VALID,0,VALID,19.5678,VALID,216,VALID,0,
2013-06-19, 03:44:04,VALID,914.503,VALID,0,VALID,94.0272,VALID,0,VALID,19.5483,VALID,196,VALID,0,
2013-06-19, 03:45:04,VALID,914.526,VALID,0,VALID,94.1111,VALID,0,VALID,19.5483,VALID,227,VALID,0,
2013-06-19, 03:46:04,VALID,914.582,VALID,0,VALID,94.0425,VALID,0,VALID,19.5288,VALID,228,VALID,0,
2013-06-19, 03:47:04,VALID,914.57,VALID,0,VALID,94.1339,VALID,0,VALID,19.5273,VALID,61,VALID,0,
2013-06-19, 03:48:04,VALID,914.539,VALID,0,VALID,94.1034,VALID,0,VALID,19.5093,VALID,119,VALID,0,
2013-06-19, 03:49:04,VALID,914.543,VALID,0,VALID,94.0806,VALID,0,VALID,19.5498,VALID,25,VALID,0,
2013-06-19, 03:50:04,VALID,914.523,VALID,0,VALID,94.1416,VALID,0,VALID,19.5093,VALID,96,VALID,0,
2013-06-19, 03:51:04,VALID,914.536,VALID,0,VALID,94.1873,VALID,0,VALID,19.5678,VALID,212,VALID,0,
2013-06-19, 03:52:04,VALID,914.54,VALID,0,VALID,94.294,VALID,0,VALID,19.5873,VALID,252,VALID,0,
2013-06-19, 03:53:04,VALID,914.582,VALID,0,VALID,94.3093,VALID,0,VALID,19.6068,VALID,226,VALID,0,
2013-06-19, 03:54:04,VALID,914.562,VALID,0,VALID,94.3017,VALID,0,VALID,19.6458,VALID,255,VALID,0,
2013-06-19, 03:55:04,VALID,914.603,VALID,0,VALID,94.2559,VALID,0,VALID,19.6458,VALID,241,VALID,0,
2013-06-19, 03:56:04,VALID,914.582,VALID,0,VALID,94.1644,VALID,0,VALID,19.6458,VALID,260,VALID,0,
2013-06-19, 03:57:04,VALID,914.538,VALID,0,VALID,94.2635,VALID,0,VALID,19.6848,VALID,252,VALID,0,
2013-06-19, 03:58:04,VALID,914.553,VALID,0,VALID,94.2026,VALID,0,VALID,19.7043,VALID,227,VALID,0,
2013-06-19, 03:59:04,VALID,914.512,VALID,0,VALID,94.1034,VALID,0,VALID,19.6848,VALID,156,VALID,0,